Retour au catalogue

STARLINK-11313

ActifCommunicationsVLEO
NORAD 61255·PAYLOAD·🇺🇸 United States

Lancé Sep 25, 2024 depuis Vandenberg Space Force Base

Loading…

Prochains Passages (prochaines 24 heures)

TLE

FraisSource: CelesTrak SupGP

Époque: Sep 15, 2026, 03:24 UTC

1 61255C 24175N   26258.14215278 -.00075148  00000+0 -61872-3 0  2582
2 61255  53.1572 202.4076 0001193  84.8863 182.4464 15.69758588    18

Suivez STARLINK-11313 en temps réel avec AllMySat

Download on the App Store